Find Starlink 31412

NORAD ID: 59410 Int'l Des: 2024-064 Owner: SPXS Country: US Constellation: starlink operational
LEOCIRCULAR

当前视图

正在加载3D地球...

About Starlink 31412

Starlink 31412 (NORAD 59410) is a starlink constellation satellite (v2 mini) launched Apr 5, 2024 by SPXS of US. It operates in LEO, CIRCULAR orbit with a mass of 730.00 kg.

关于 Starlink 31412

正在加载描述...

即将过境

Passes for default location (London). Set your location on the main map for personalized predictions.

高度历史

Loading altitude history...

两行轨道根数

1 59410U 24064N 26173.42217540 .00000603 00000-0 31437-4 0 9990
2 59410 43.0021 184.6646 0001212 262.0868 97.9846 15.27577590125249
Epoch: Jun 22, 2026 • Age: 22 hours

当前状态

高度 494.5 km
速度 7.62 km/s
星下点 -40.54°S, 85.45°E
发射日期 Apr 5, 2024
运行时间 2.2 years
类型 internet

技术详情

分类 Payload
质量 730.00 kg
干质量 700.00 kg
总质量 730.00 kg
长度 0.30 m
直径 4.10 m
跨度 29.00 m
形状 Box + pan
制造商 SPXS
平台类型 Starlink V2M
阶段状态 In Orbit
所有者/国家 SPXS/US

Most Searched